Location: City of Moscow
(46.7306°N, 116.9989°W)
Time: 03:27:44
(UTC+00:00)

SL-16 R/B - Pass Details

Date: 11 December 2025
Orbit: 841 x 845 km, 71.0° (Epoch: 13 January)

Event Time Altitude Azimuth Distance (km) Brightness Sun altitude
Exits shadow 13:17:06 37° 307° (NW) 1,283 2.7 -20.6°
Maximum altitude 13:19:05 57° 249° (WSW) 995 2.2 -20.3°
Drops below altitude 10° 13:24:35 10° 173° (S) 2,458 4.9 -19.3°
Sets 13:27:03 0° 169° (S) 3,388 5.7 -18.9°
